sat.trackr.live / text

‹ back to catalog

STARLINK-34129

NORAD 64138 · 2025-111R

PAYLOAD ACTIVE UNKNOWN

§ Identity

Operator
Country
US
Launch date
2025-05-24
Launch site
AFETR
Launch vehicle
Mass (kg)
RCS (m²)

Purposes: comms

External: N2YO · Heavens-Above · Gunter

§ Orbital elements

Epoch: 2026-05-25T00:19:31.521792Z

Period
94.27 min
Inclination
43.0028°
Eccentricity
0.0001890
Mean motion
15.27583594 rev/d
Perigee alt
481.7 km
Apogee alt
484.3 km
Semi-major
6,861.2 km
B*
3.8837e-4
RAAN
7.0500°
Arg perigee
269.0313°
Mean anomaly
91.0322°
Rev number
5,718

§ Raw data

STARLINK-341291 64138U 25111R   26145.01355928  .00010441  00000+0  38837-3 0  99942 64138  43.0028   7.0500 0001890 269.0313  91.0322 15.27583594 57182

JSON: /api/v1/satellites/64138 · /tle

For live sub-satellite position, see the globe view (requires WebGL).

§ Visibility from observer

Set your observer location to see the next 7 days of passes ≥ 10°. The values pass through the URL so the page stays shareable.

No JS? Fill the form by hand. The geolocation button needs JavaScript.